Terug naar catalogus

STARLINK-32223

ActiefCommunicatieVLEO
NORAD 60373·PAYLOAD·🇺🇸 United States

Gelanceerd Aug 4, 2024 vanaf Vandenberg Space Force Base

Loading…

Volgende Passages (komende 24 uur)

TLE

VersSource: CelesTrak SupGP

Epoch: Sep 15, 2026, 02:25 UTC

1 60373C 24138U   26258.10118056  .00072466  00000+0  23274-2 0  2584
2 60373  53.1576 148.6745 0001402  87.8461 261.0991 15.31706144    15

Volg STARLINK-32223 in realtime met AllMySat

Download on the App Store